Temp
86 89 87 85 84 85 83 77 75 76 76 78 78 78 84 84 90 86 87 84 83 83 84 84 83 83 83 82 82 82 82 82 81 81 81 81 81 81 81 81 81 80 80
87 89 88 88 89 89 88 85 80 75 75 76 74 71 75 74 91 92 89 80 82 81 82 83 83 83 83 83 82 82 82 82 82 81 81 81 80 80 80 81 81 80 80
87 87 87 87 89 89 89 87 87 82 76 75 72 74 75 78 82 89 88 77 75 80 81 83 83 82 83 83 82 82 81 81 81 81 80 80 80 80 80 80 80 80 80
89 88 87 88 89 86 87 88 83 84 83 78 75 71 75 76 85 89 89 89 84 80 78 80 83 82 83 83 82 82 81 81 81 80 80 80 80 79 79 79 80 80 80
90 87 88 88 84 84 88 87 82 82 80 78 76 78 76 74 77 93 90 91 87 84 78 81 79 80 83 83 83 82 81 81 80 80 80 80 80 79 79 79 79 79 79
90 88 89 88 87 86 87 82 79 80 81 85 89 87 84 80 84 83 87 91 88 89 82 78 78 79 82 83 82 82 82 81 80 80 80 80 80 79 79 78 78 78 78
92 88 89 88 88 87 85 83 82 80 81 82 80 80 82 83 75 73 74 74 79 88 85 80 81 79 81 81 81 81 82 82 80 80 79 79 79 79 79 78 78 78 78
91 91 87 87 87 87 84 85 85 80 83 85 79 76 76 77 72 71 71 70 76 87 87 85 84 78 76 75 81 81 81 81 81 80 79 79 78 78 78 78 78 77 77
90 89 87 87 86 87 85 84 85 83 81 83 84 79 75 72 75 70 70 73 78 85 87 86 85 81 78 78 81 81 81 80 81 81 80 79 78 77 77 77 77 77 77
89 89 88 87 86 87 84 84 86 82 81 79 82 85 82 78 69 71 72 71 74 78 85 85 86 86 84 81 83 82 80 78 80 80 80 79 78 77 77 77 77 76 76
89 90 89 87 86 87 85 84 83 82 80 80 80 81 79 76 75 73 70 72 73 80 84 84 85 84 86 86 85 84 80 78 78 79 79 79 79 78 78 77 77 77 77
93 89 90 88 87 87 85 85 84 82 82 80 80 80 79 75 76 74 73 74 74 81 83 77 74 74 76 85 88 85 80 77 77 77 77 78 78 78 78 78 78 78 78
93 90 88 88 88 86 86 85 82 83 83 82 80 81 80 81 81 78 74 70 70 77 80 76 73 74 75 74 84 83 80 76 76 75 76 76 76 77 77 78 78 78 78
92 91 90 89 87 87 86 84 84 85 83 81 81 80 81 82 81 81 76 69 70 74 79 80 74 72 72 72 75 78 82 76 75 74 74 74 74 75 75 76 76 76 77
92 89 91 87 87 86 85 83 84 82 83 82 82 81 80 82 81 82 83 79 73 67 66 75 72 73 71 70 72 73 78 75 75 74 73 73 73 73 73 74 74 74 74
88 87 88 90 87 86 85 84 84 84 83 83 83 81 80 81 81 80 82 82 75 70 66 77 78 75 72 71 70 69 73 74 74 73 73 72 72 72 72 72 72 72 72
86 86 87 87 86 85 84 84 82 83 81 81 82 81 80 80 80 81 77 76 80 75 70 73 76 74 72 71 71 74 74 75 74 72 72 71 70 70 70 70 70 71 71
87 86 86 86 85 84 84 82 82 84 81 79 80 80 79 79 75 76 78 76 75 75 72 70 74 73 72 72 75 74 76 78 74 72 71 70 69 69 68 68 68 68 68
86 87 86 84 84 83 82 81 80 80 81 81 80 79 77 75 73 73 74 74 74 73 72 71 69 72 72 74 73 73 73 73 75 73 71 70 69 68 67 67 66 64 63
84 84 84 83 83 82 82 80 80 79 79 80 79 77 76 73 73 71 73 72 73 72 71 69 67 68 68 70 71 69 66 68 69 75 74 74 73 71 68 67 66 66 62
84 84 83 83 83 82 82 79 79 78 77 76 76 75 74 71 70 70 72 70 70 69 69 67 65 65 65 65 65 67 66 66 68 68 68 68 68 70 71 69 70 68 64
82 82 82 82 81 82 73 72 77 76 76 75 73 75 71 71 68 67 67 68 69 67 66 65 66 64 63 62 62 62 62 62 60 66 64 66 68 67 71 71 71 68 66
78 76 77 79 78 77 68 70 71 77 76 75 75 74 76 77 72 71 67 67 67 67 69 68 66 64 62 63 63 64 64 64 63 66 66 63 66 66 70 73 69 67 65
77 76 75 76 73 70 65 66 69 76 75 76 75 75 75 73 71 73 71 70 70 69 70 74 69 67 67 67 67 68 67 66 67 67 68 62 66 65 69 70 69 67 66
75 76 76 74 71 66 62 63 67 75 74 74 75 75 74 71 64 64 72 69 66 66 64 63 64 64 65 66 68 68 65 64 64 65 67 65 66 66 67 67 70 67 65
74 76 75 73 68 67 61 61 65 73 71 71 69 67 66 66 62 64 71 70 64 66 66 64 64 63 66 66 68 69 67 64 64 62 65 63 65 63 61 67 69 70 71
MSLP
1013.92 1013.66 1013.56 1013.59 1013.39 1013.08 1013.39 1015.13 1015.15 1015.03 1013.61 1014.80 1014.71 1014.97 1014.55 1013.07 1012.51 1012.32 1012.99 1013.51 1013.75 1014.13 1013.96 1014.47 1015.20 1015.53 1015.55 1015.60 1015.71 1016.14 1016.56 1016.89 1017.11 1017.33 1017.68 1018.02 1018.34 1018.66 1018.95 1019.09 1019.30 1019.49 1019.68
1013.33 1013.27 1013.34 1013.25 1012.86 1012.44 1012.52 1012.62 1013.11 1013.54 1013.80 1014.58 1016.25 1013.73 1014.65 1014.04 1011.92 1011.82 1012.48 1013.54 1012.23 1012.65 1013.95 1014.26 1014.85 1014.92 1015.05 1015.14 1015.19 1015.39 1015.85 1016.28 1016.69 1016.90 1017.17 1017.44 1017.85 1018.31 1018.59 1018.83 1019.07 1019.31 1019.52
1013.05 1013.14 1013.21 1013.05 1012.58 1012.20 1012.44 1012.78 1013.07 1013.71 1014.27 1013.69 1014.71 1014.62 1012.80 1012.26 1012.72 1011.70 1011.73 1012.58 1012.62 1011.87 1013.28 1012.37 1013.63 1014.67 1014.54 1014.75 1014.88 1014.93 1015.33 1015.85 1016.24 1016.45 1016.64 1016.96 1017.31 1017.60 1017.96 1018.33 1018.61 1018.85 1019.03
1012.67 1012.85 1013.11 1012.84 1012.37 1012.28 1012.21 1012.70 1013.07 1013.48 1013.49 1013.77 1013.96 1013.08 1013.07 1013.78 1012.57 1011.53 1011.65 1011.37 1011.31 1013.00 1011.35 1012.18 1013.27 1014.38 1014.44 1014.53 1014.65 1014.83 1014.94 1015.47 1015.93 1016.17 1016.28 1016.49 1016.85 1017.24 1017.55 1017.87 1018.20 1018.47 1018.73
1012.24 1012.61 1012.69 1012.32 1012.25 1012.22 1012.17 1012.48 1012.79 1013.35 1013.71 1013.10 1012.90 1012.58 1013.10 1012.61 1012.83 1011.62 1011.46 1010.98 1010.79 1011.88 1012.43 1011.50 1012.79 1013.75 1014.23 1014.44 1014.44 1014.75 1014.89 1015.24 1015.66 1015.97 1016.01 1016.12 1016.40 1016.77 1017.12 1017.43 1017.68 1018.00 1018.31
1011.75 1012.13 1012.24 1012.03 1011.76 1012.07 1011.72 1012.15 1012.13 1012.20 1013.00 1012.94 1012.31 1011.86 1011.80 1012.37 1012.17 1011.90 1012.23 1011.43 1011.08 1010.96 1011.47 1011.84 1012.01 1013.33 1013.69 1013.80 1014.00 1014.57 1014.70 1014.98 1015.33 1015.58 1015.69 1015.88 1016.13 1016.41 1016.66 1016.96 1017.19 1017.47 1017.74
1011.09 1011.41 1011.81 1011.76 1011.62 1011.68 1011.49 1011.91 1012.10 1012.15 1012.47 1012.21 1012.29 1011.90 1011.74 1011.68 1012.08 1013.14 1013.70 1014.05 1012.13 1011.89 1011.67 1012.19 1012.42 1013.02 1013.63 1013.49 1013.21 1013.92 1014.40 1014.61 1014.94 1015.21 1015.34 1015.56 1015.94 1016.23 1016.51 1016.69 1016.92 1017.13 1017.32
1010.65 1010.80 1011.16 1011.33 1011.21 1011.15 1011.27 1011.24 1011.34 1011.65 1011.51 1011.21 1011.49 1011.55 1011.70 1012.46 1013.18 1012.91 1012.96 1014.74 1014.38 1011.92 1011.44 1011.25 1011.82 1012.63 1012.99 1012.54 1013.19 1013.58 1013.96 1014.20 1014.47 1014.74 1014.87 1015.16 1015.59 1015.94 1016.26 1016.43 1016.71 1016.87 1017.06
1010.32 1010.60 1010.82 1010.93 1010.98 1010.92 1010.88 1011.03 1011.13 1011.25 1011.29 1010.93 1010.95 1011.29 1011.64 1012.29 1012.89 1013.39 1013.20 1013.46 1012.30 1011.71 1011.32 1010.72 1010.93 1011.45 1011.64 1012.12 1012.57 1013.30 1013.86 1013.78 1013.91 1014.12 1014.40 1014.79 1015.33 1015.74 1016.07 1016.27 1016.46 1016.70 1016.88
1009.81 1009.86 1010.17 1010.61 1010.77 1010.75 1010.72 1010.81 1010.92 1010.98 1011.13 1011.12 1010.77 1010.71 1011.06 1011.83 1012.64 1013.46 1013.31 1013.60 1012.50 1011.52 1010.55 1010.37 1010.48 1010.55 1010.78 1011.52 1012.14 1012.99 1013.32 1013.30 1013.30 1013.43 1013.80 1014.51 1015.14 1015.61 1015.89 1016.15 1016.34 1016.52 1016.77
1009.07 1009.32 1009.59 1009.91 1010.25 1010.43 1010.49 1010.54 1010.61 1011.02 1011.13 1011.18 1010.94 1010.90 1010.89 1011.29 1011.75 1011.93 1012.57 1012.84 1012.34 1010.78 1010.15 1010.19 1010.39 1010.58 1010.57 1011.01 1011.59 1012.06 1012.39 1012.56 1012.66 1012.84 1013.35 1014.13 1014.84 1015.35 1015.67 1015.93 1016.21 1016.40 1016.55
1008.22 1008.47 1008.73 1009.06 1009.37 1009.80 1010.11 1010.21 1010.28 1010.47 1010.65 1010.70 1010.80 1010.91 1011.04 1011.27 1011.12 1011.50 1011.69 1011.74 1011.72 1010.74 1010.09 1010.71 1011.46 1010.88 1011.17 1011.19 1011.26 1011.49 1011.72 1012.26 1012.20 1012.32 1012.93 1013.64 1014.28 1014.87 1015.26 1015.57 1015.86 1016.10 1016.38
1007.20 1007.27 1007.81 1008.16 1008.57 1008.94 1009.39 1009.81 1010.09 1010.11 1010.26 1010.52 1010.51 1010.59 1010.63 1010.63 1010.63 1010.66 1011.27 1011.22 1010.74 1009.81 1009.52 1010.33 1009.96 1009.92 1011.49 1011.60 1011.27 1011.13 1011.41 1011.95 1012.17 1012.32 1012.44 1013.21 1013.83 1014.41 1014.97 1015.28 1015.57 1015.83 1016.06
1006.92 1006.83 1007.00 1007.49 1007.85 1008.27 1008.67 1009.11 1009.72 1009.74 1009.84 1010.08 1010.19 1010.27 1010.31 1010.26 1010.23 1010.33 1010.16 1010.87 1010.41 1010.24 1009.67 1009.46 1010.30 1010.72 1010.93 1011.49 1012.11 1011.94 1010.87 1011.41 1011.87 1012.39 1012.17 1012.65 1013.47 1014.01 1014.55 1014.94 1015.24 1015.54 1015.78
1007.13 1006.60 1006.28 1006.64 1007.24 1007.60 1007.98 1008.33 1008.89 1009.25 1009.33 1009.42 1009.64 1009.83 1009.91 1009.97 1010.03 1009.84 1009.44 1009.42 1009.71 1010.05 1009.77 1009.01 1010.34 1010.61 1011.11 1011.57 1011.81 1012.23 1011.77 1011.12 1011.26 1011.85 1011.86 1012.24 1013.03 1013.60 1013.99 1014.46 1014.81 1015.12 1015.40
1006.42 1006.40 1006.17 1006.30 1006.63 1006.97 1007.27 1007.49 1007.91 1008.46 1008.86 1009.04 1009.21 1009.34 1009.54 1009.63 1009.63 1009.61 1009.31 1009.11 1009.28 1009.56 1009.54 1009.37 1009.29 1010.25 1011.21 1011.16 1011.49 1011.58 1012.18 1010.80 1010.87 1011.25 1011.45 1011.80 1012.41 1012.78 1013.34 1013.85 1014.20 1014.65 1014.97
1006.41 1006.37 1006.22 1006.14 1006.27 1006.62 1006.74 1006.96 1007.20 1007.65 1008.15 1008.62 1008.83 1008.91 1009.08 1009.15 1009.31 1009.24 1009.05 1009.19 1009.16 1009.04 1009.11 1008.90 1009.41 1009.99 1010.53 1010.71 1010.86 1010.49 1010.40 1010.51 1010.87 1011.18 1011.48 1011.94 1012.46 1012.88 1013.25 1013.62 1013.89 1014.13 1014.49
1005.81 1005.91 1005.84 1005.89 1006.09 1006.27 1006.43 1006.72 1007.00 1007.28 1007.89 1008.40 1008.51 1008.70 1008.81 1008.95 1009.15 1009.21 1008.76 1008.82 1008.98 1008.73 1008.77 1008.82 1009.09 1009.50 1009.73 1010.21 1009.77 1009.89 1010.43 1009.98 1010.81 1011.37 1011.64 1012.12 1012.35 1012.66 1012.87 1013.22 1013.43 1013.67 1013.87
1005.31 1005.23 1005.36 1005.33 1005.61 1005.79 1006.24 1006.43 1006.74 1007.32 1007.74 1007.94 1008.22 1008.63 1008.88 1009.02 1009.08 1009.14 1008.55 1008.34 1008.50 1008.37 1008.39 1008.81 1009.09 1008.92 1009.26 1009.18 1009.50 1009.91 1010.24 1010.69 1010.72 1011.35 1011.52 1011.81 1012.14 1012.45 1012.56 1012.77 1013.05 1013.38 1013.60
1004.70 1004.71 1004.87 1004.94 1005.14 1005.42 1005.89 1006.31 1006.85 1007.25 1007.71 1007.96 1008.38 1008.65 1008.89 1009.10 1009.81 1008.96 1008.42 1008.31 1008.17 1008.41 1008.64 1008.99 1008.65 1009.44 1009.52 1009.66 1009.69 1010.48 1011.25 1010.98 1011.29 1011.22 1011.40 1011.51 1011.65 1012.08 1012.35 1012.58 1012.88 1013.07 1013.27
1004.20 1004.15 1004.40 1004.52 1004.67 1004.98 1005.37 1006.05 1006.53 1007.08 1007.66 1008.10 1008.39 1008.53 1008.53 1008.82 1009.48 1009.43 1008.51 1008.52 1008.58 1008.81 1009.02 1009.43 1009.66 1009.49 1010.33 1010.57 1010.89 1011.01 1011.31 1011.64 1011.89 1011.81 1011.77 1011.75 1011.96 1012.19 1012.27 1012.14 1012.18 1012.30 1012.49
1004.25 1004.12 1004.09 1004.10 1004.42 1004.61 1005.00 1005.70 1006.07 1006.88 1007.40 1007.92 1008.19 1008.33 1008.62 1009.25 1009.75 1009.69 1008.92 1008.75 1008.64 1008.92 1009.22 1009.70 1010.07 1010.58 1010.88 1011.21 1011.46 1011.72 1011.95 1012.18 1012.35 1012.28 1012.35 1012.35 1012.24 1012.14 1012.03 1012.02 1012.02 1012.29 1012.29
1004.30 1004.27 1004.16 1003.95 1004.10 1004.35 1004.75 1005.30 1005.82 1006.60 1006.93 1007.25 1007.58 1007.90 1007.78 1007.84 1008.76 1009.63 1009.74 1009.19 1008.97 1009.12 1009.11 1009.42 1010.16 1010.72 1011.00 1011.38 1011.56 1011.72 1011.95 1012.12 1012.21 1012.28 1012.42 1012.62 1012.46 1012.49 1012.19 1011.99 1011.81 1011.81 1012.08
1003.91 1003.76 1003.69 1003.75 1004.22 1004.53 1004.98 1005.44 1005.94 1006.20 1006.50 1006.87 1007.33 1007.60 1007.89 1007.96 1008.44 1008.76 1009.19 1009.52 1009.64 1009.85 1009.72 1009.48 1009.83 1010.24 1010.61 1010.96 1011.17 1011.39 1011.63 1011.86 1011.94 1012.06 1012.17 1012.49 1012.29 1012.31 1012.08 1011.90 1011.68 1011.60 1011.67
1003.56 1003.40 1003.36 1003.55 1003.89 1004.87 1005.31 1005.66 1005.83 1006.02 1006.34 1006.65 1007.11 1007.38 1007.73 1008.21 1008.77 1008.78 1008.75 1009.39 1010.22 1010.65 1010.44 1009.98 1009.89 1010.13 1010.31 1010.55 1010.96 1011.50 1011.73 1011.83 1011.82 1012.00 1012.36 1012.52 1012.28 1012.17 1011.96 1011.81 1011.59 1011.54 1011.58
1003.56 1003.20 1003.25 1003.14 1003.65 1004.67 1004.89 1005.37 1005.70 1005.81 1006.43 1006.98 1007.33 1007.63 1007.86 1008.41 1008.90 1008.82 1008.80 1009.37 1010.00 1010.60 1010.76 1010.92 1010.78 1010.83 1010.67 1010.85 1010.92 1011.30 1011.47 1011.76 1011.79 1012.23 1012.75 1012.78 1012.33 1012.61 1012.53 1011.85 1011.93 1011.76 1011.84
Wind_Speed
4 4 4 3 5 6 8 11 9 8 6 8 12 13 13 13 9 3 6 19 6 6 15 17 16 16 15 15 15 17 17 17 16 15 15 15 15 14 13 13 14 13 12
4 4 4 5 6 6 2 2 4 5 1 4 7 6 14 13 5 7 6 6 10 7 14 14 15 16 16 15 15 16 17 17 16 15 15 14 14 13 14 13 13 12 12
5 4 3 5 6 2 3 2 4 7 3 3 6 3 8 11 15 5 4 10 12 21 18 18 17 17 16 15 15 16 16 16 15 15 15 14 13 14 14 14 14 13 13
5 4 5 7 3 4 3 3 2 3 1 4 5 7 1 8 15 5 5 7 9 9 12 14 15 14 14 14 14 15 15 15 14 14 14 14 14 13 13 14 14 14 13
8 5 6 6 2 4 5 1 1 0 3 3 3 7 7 6 15 9 7 3 6 11 7 10 13 11 14 15 14 14 14 14 14 14 14 14 14 13 13 13 14 13 13
8 7 7 8 3 6 4 2 1 5 3 3 6 6 3 6 8 8 6 4 4 7 11 9 3 6 15 17 14 14 15 14 14 14 14 13 13 13 12 13 13 12 12
7 7 6 7 6 6 6 5 4 6 5 4 2 3 3 4 9 8 10 13 13 7 10 10 6 4 6 14 14 16 16 15 14 13 12 11 11 12 12 13 12 11 12
7 6 7 7 6 4 4 3 4 4 3 3 3 3 3 3 5 5 5 5 11 11 5 11 11 10 8 4 10 17 17 16 15 14 12 11 11 11 9 8 8 9 10
9 8 6 7 7 5 4 4 4 5 4 4 5 0 2 2 2 2 3 4 10 7 4 6 10 11 11 9 11 15 19 17 15 14 12 12 11 9 9 9 8 8 7
12 11 10 8 7 5 5 5 5 5 4 4 4 3 4 3 2 2 1 4 8 12 6 2 5 7 9 9 15 19 21 17 16 15 14 13 11 10 10 9 9 8 7
12 13 11 10 8 7 7 6 5 5 4 4 4 3 3 3 6 2 3 3 6 10 4 4 3 4 7 8 8 14 22 22 18 16 14 13 12 12 12 11 11 10 10
8 13 13 11 11 10 9 7 6 7 6 5 4 4 4 5 3 3 4 3 3 5 5 7 5 3 5 5 7 12 21 19 18 17 15 14 14 14 14 13 13 12 11
6 9 14 12 10 11 9 5 6 6 5 5 5 6 4 6 4 1 1 3 4 4 3 6 7 7 2 7 7 7 15 16 15 16 17 15 14 13 13 13 13 13 13
9 9 9 12 12 10 10 7 6 6 6 6 8 6 5 6 4 5 4 4 3 5 5 5 1 4 1 3 16 30 10 17 17 15 16 15 13 12 12 12 12 12 12
11 10 6 13 12 11 9 10 7 8 8 6 6 8 7 6 5 6 6 6 8 3 4 7 3 3 1 4 4 15 11 16 20 18 16 15 13 13 13 12 11 11 11
8 10 7 4 11 12 11 9 8 8 8 7 7 6 7 6 6 7 8 8 2 5 5 4 1 6 7 6 7 8 22 12 14 15 16 15 15 15 12 11 11 11 11
9 10 7 6 6 9 9 9 9 8 9 7 5 5 6 5 5 7 5 7 9 5 8 3 1 8 4 9 11 9 7 7 6 10 9 9 6 7 9 10 10 11 11
8 9 8 7 6 8 7 8 9 9 6 7 6 5 5 3 4 6 8 9 10 7 6 6 4 3 4 6 4 5 3 5 6 6 7 5 6 7 8 10 11 12 14
8 8 8 8 9 8 9 7 6 6 5 4 4 3 3 3 4 7 9 8 5 6 4 1 3 3 2 3 4 5 6 5 4 8 4 5 5 6 5 6 8 9 11
8 8 8 8 9 7 7 6 6 5 4 4 2 2 2 1 8 6 4 4 2 1 2 3 2 2 5 3 4 5 3 4 3 3 6 5 4 3 6 7 10 10 10
8 8 9 10 8 9 8 9 7 5 6 5 5 4 3 2 2 6 2 3 4 4 6 6 4 3 2 3 3 1 4 2 3 3 2 3 3 3 3 5 7 10 11
9 8 9 9 10 8 11 10 10 7 7 8 7 5 6 3 2 3 5 4 3 3 4 3 2 3 2 3 3 3 2 2 2 3 4 4 3 5 6 3 7 6 6
8 6 8 10 10 8 9 14 12 7 9 9 7 7 8 8 8 4 4 7 8 6 5 5 7 3 4 3 4 3 2 2 2 1 3 2 1 3 4 3 8 7 3
9 9 9 7 4 3 10 11 10 8 7 7 7 7 4 6 3 6 7 6 5 6 1 7 7 6 5 5 3 3 3 2 2 2 3 1 2 2 2 3 6 5 5
8 10 8 7 6 7 10 8 9 6 7 8 5 3 6 6 2 4 5 10 7 4 8 12 11 10 11 8 3 3 2 3 3 2 2 1 2 2 1 3 3 4 1
12 8 8 6 12 8 12 12 8 3 8 6 6 6 11 7 3 6 5 6 8 6 6 5 5 5 6 5 4 2 4 3 3 4 2 2 2 4 4 2 1 3 4
Wind_Direction
224 237 211 192 228 225 183 168 177 252 268 326 1 356 292 224 252 173 164 183 161 209 184 192 207 215 214 215 215 213 215 218 219 222 222 222 226 224 225 223 220 223 222
233 251 194 223 251 259 247 284 159 197 160 74 257 37 312 306 240 255 135 146 158 217 255 211 217 213 215 215 212 206 211 214 218 219 220 223 224 226 225 225 224 224 222
253 285 310 304 279 176 224 291 209 181 214 62 233 194 286 280 277 216 193 154 221 214 232 202 210 220 213 215 207 201 205 209 215 218 218 221 222 223 225 222 221 220 219
226 217 227 246 290 286 232 255 282 284 90 189 188 244 181 333 306 246 230 187 214 135 212 249 211 225 207 199 203 206 202 207 216 218 218 219 223 226 226 228 227 224 223
201 214 265 262 225 275 274 119 31 51 315 279 225 252 191 137 268 258 250 223 180 173 204 189 187 231 202 199 200 208 206 208 213 218 219 219 222 225 227 227 227 225 226
193 198 235 264 240 232 225 150 180 249 245 269 289 325 283 201 244 5 341 246 246 204 163 199 175 204 198 198 200 214 211 209 215 214 219 219 223 221 224 223 222 223 225
196 202 234 264 232 248 270 174 181 225 243 232 230 266 269 324 59 61 352 336 327 242 147 167 174 153 218 210 200 208 213 208 205 208 214 218 218 222 222 228 226 222 222
219 230 211 244 265 264 186 222 248 277 276 279 199 203 310 122 42 46 134 262 287 245 193 172 172 174 162 195 224 217 211 206 205 205 208 210 217 221 219 226 224 221 217
211 228 249 222 244 263 261 233 212 239 269 294 256 196 320 9 182 258 346 352 288 287 268 187 177 161 181 196 206 211 215 203 202 200 203 205 207 212 214 213 204 204 207
202 210 219 229 246 255 260 258 222 222 216 273 302 236 216 139 164 106 117 231 285 300 264 217 197 187 167 188 193 201 206 199 196 196 197 203 205 206 208 209 204 194 198
198 206 210 214 225 223 243 257 276 211 225 248 280 316 281 182 227 192 275 172 233 247 251 234 214 198 196 195 189 195 191 195 191 189 192 198 200 205 210 210 212 210 211
210 203 208 203 211 215 228 236 235 231 218 270 287 300 294 287 263 245 224 238 235 253 211 75 344 352 329 268 219 196 188 191 189 185 186 192 194 202 209 213 216 221 226
240 205 204 206 205 205 214 217 225 240 203 232 241 249 260 271 303 335 232 272 270 310 235 143 174 179 94 12 309 176 173 172 202 192 182 187 192 197 206 214 222 228 233
250 269 199 206 200 199 202 197 238 223 204 214 241 244 252 267 255 261 216 186 272 249 287 245 205 147 153 50 335 325 171 182 191 204 183 181 188 191 200 210 218 227 234
270 268 221 193 199 198 188 191 214 225 225 198 221 240 241 248 252 273 264 241 236 246 253 282 149 96 344 91 137 293 311 190 187 195 185 180 183 192 199 206 214 220 226
248 252 267 233 202 191 191 191 202 213 210 218 223 225 225 238 240 245 265 279 209 204 237 216 81 126 167 123 148 228 260 179 187 194 190 181 186 193 197 204 210 221 229
265 277 277 239 234 196 201 195 198 225 210 213 234 246 266 265 275 280 266 263 267 254 242 262 54 129 123 167 201 199 181 166 182 183 168 179 187 191 198 214 222 227 233
243 251 254 258 240 219 217 200 204 222 194 225 228 240 263 306 328 307 289 265 250 256 252 257 212 179 159 210 195 186 95 53 129 122 136 192 208 218 217 225 225 229 232
272 256 256 236 235 220 216 203 186 221 241 224 236 233 255 291 305 302 286 270 259 259 249 219 255 208 157 144 112 71 68 113 119 164 171 174 206 221 227 227 231 232 237
252 253 256 246 233 214 207 177 175 193 236 236 206 239 173 328 313 315 330 5 312 109 52 44 221 26 64 360 62 105 74 66 74 67 61 80 124 185 221 227 233 232 236
262 253 250 248 218 193 190 177 178 178 220 180 196 213 190 60 277 298 351 63 65 66 97 100 90 84 87 67 102 288 98 96 48 41 32 59 62 21 294 256 257 227 230
277 272 257 243 202 193 185 185 166 206 210 189 199 195 135 149 104 21 76 87 132 116 101 105 102 129 97 92 45 44 67 53 35 11 33 346 36 357 344 346 355 302 281
267 269 287 259 217 208 160 177 174 216 197 190 192 186 194 148 144 127 77 87 77 95 131 132 132 119 115 139 144 128 99 133 145 162 82 326 355 324 296 315 338 3 329
280 245 244 252 213 144 157 172 181 208 185 193 200 198 174 138 96 157 175 139 91 53 101 129 124 133 124 148 155 127 130 138 200 196 143 218 210 243 253 266 271 271 232
271 278 250 209 151 164 172 185 161 200 178 175 155 99 137 119 67 38 127 116 113 98 49 79 96 104 111 106 90 136 179 193 203 139 119 336 292 231 275 282 332 68 26
279 267 254 204 145 177 180 177 176 208 163 132 113 76 93 113 90 48 146 149 139 159 123 100 91 89 120 125 145 82 35 356 351 118 31 288 3 46 343 317 62 42 14